Home   Weather   Gran   Past weeks

Flag for Norway Past Weather in Gran, Norway — Yesterday and Last 2 Weeks

32 °F

Ice fog.

Feels Like: 32 °F
Forecast: 38 / 44 °F
Wind: No wind

Location: Oslo Gardermoen Airport

Current Time: Oct 26, 2016 at 9:34:53 AM

Latest Report: Oct 26, 2016 at 8:50 AM

Visibility: 0 mi

Pressure: 30.18 "Hg

Humidity: 93%

Dew Point: 30 °F

Location of GranLocation

Past Weather in Gran — Graph


Gran Temperature Yesterday

Maximum temperature yesterday: 43 °F (at 12:50 PM)
Minimum temperature yesterday: 36 °F (at 8:20 PM)
Average temperature yesterday: 39 °F

High & Low Weather Summary for the Past Weeks

High45 °F (Oct 19, 12:20 PM)100% (Oct 17, 9:20 AM)30.60 "Hg (Oct 17, 9:20 AM)
Low30 °F (Oct 14, 3:50 AM)65% (Oct 11, 3:20 PM)30.12 "Hg (Oct 18, 11:20 AM)
Average38 °F84%30.36 "Hg
* Reported Oct 11 8:20 AM — Oct 26 8:20 AM, Gran, Weather by CustomWeather, © 2016

Note: Actual official high and low records may vary slightly from our data, if they occured in-between our weather recording intervals... More about our weather records


Gran Weather History for the Previous 24 Hours

Scroll right to see more
Time TempWeatherWind HumidityBarometerVisibility
8:20 AM
Wed, Oct 26
32 °FChilly.No wind93%30.18 "Hg1 mi
7:50 AM30 °FIce fog.No wind100%30.21 "Hg1 mi
7:20 AM30 °FIce fog.No wind100%30.21 "Hg1 mi
6:50 AM30 °FIce fog.No wind100%30.21 "Hg1 mi
6:20 AM30 °FChilly.1 mph100%30.21 "Hg1 mi
5:50 AM30 °FIce fog.1 mph100%30.21 "Hg1 mi
5:20 AM32 °FIce fog.1 mph93%30.21 "Hg1 mi
4:50 AM32 °FChilly.2 mph93%30.21 "Hg1 mi
4:20 AM32 °FChilly.1 mph93%30.21 "Hg1 mi
3:50 AM32 °FChilly.No wind100%30.21 "Hg1 mi
3:20 AM32 °FIce fog.2 mph93%30.24 "Hg0 mi
2:50 AM32 °FIce fog.3 mph93%30.24 "Hg1 mi
2:20 AM32 °FFog.6 mph93%30.24 "Hg1 mi
1:50 AM32 °FSnow. Overcast.5 mph93%30.24 "Hg2 mi
1:20 AM34 °FSnow. Overcast.2 mph93%30.24 "Hg3 mi
12:50 AM34 °FSnow. Overcast.No wind93%30.24 "Hg5 mi
12:20 AM36 °FOvercast.2 mph93%30.24 "HgN/A
11:50 PM
Tue, Oct 25
36 °FOvercast.No wind93%30.24 "HgN/A
11:20 PM36 °FOvercast.No wind93%30.24 "HgN/A
10:50 PM36 °FClear.No wind93%30.27 "Hg10 mi
10:20 PM36 °FClear.No wind93%30.27 "Hg10 mi
9:50 PM36 °FClear.No wind93%30.27 "Hg10 mi
9:20 PM36 °FClear.2 mph93%30.27 "Hg10 mi
8:50 PM36 °FClear.2 mph93%30.27 "Hg10 mi
8:20 PM36 °FPartly cloudy.2 mph93%30.27 "HgN/A
7:50 PM37 °FClear.No wind87%30.27 "Hg10 mi
7:20 PM37 °FPassing clouds.3 mph93%30.27 "HgN/A
6:50 PM37 °FClear.1 mph93%30.27 "Hg10 mi
6:20 PM39 °FPartly cloudy.2 mph87%30.27 "HgN/A
5:50 PM41 °FPartly cloudy.2 mph81%30.27 "HgN/A
5:20 PM41 °FPartly sunny.1 mph81%30.27 "HgN/A
4:50 PM41 °FPartly sunny.No wind87%30.27 "HgN/A
4:20 PM43 °FPartly sunny.2 mph76%30.27 "HgN/A
3:50 PM43 °FOvercast.2 mph81%30.27 "HgN/A
3:20 PM43 °FOvercast.3 mph76%30.27 "HgN/A
2:50 PM43 °FOvercast.5 mph76%30.27 "HgN/A
2:20 PM43 °FPartly sunny.6 mph76%30.27 "HgN/A
1:50 PM43 °FPartly sunny.6 mph81%30.27 "HgN/A
1:20 PM43 °FPartly sunny.6 mph81%30.27 "HgN/A
12:50 PM43 °FBroken clouds.7 mph81%30.27 "HgN/A
12:20 PM41 °FBroken clouds.6 mph87%30.27 "HgN/A
11:50 AM41 °FBroken clouds.6 mph87%30.27 "HgN/A
11:20 AM41 °FBroken clouds.6 mph87%30.27 "HgN/A
10:50 AM41 °FBroken clouds.7 mph87%30.27 "HgN/A
10:20 AM39 °FMore clouds than sun.8 mph93%30.27 "HgN/A
9:50 AM39 °FPartly sunny.7 mph93%30.27 "HgN/A
9:20 AM39 °FBroken clouds.8 mph93%30.27 "HgN/A
Weather by CustomWeather, © 2016

See weather overviewHow to use our weather pages